Location: Berg
(48.4333°N, 13.9167°E)
Time: 04:47:22
(UTC+00:00)

Okean 1 Rocket - Pass Details

Date: 18 September 2020
Orbit: 605 x 635 km, 82.5° (Epoch: 29 October)

Event Time Altitude Azimuth Distance (km) Brightness Sun altitude
Exits shadow 19:51:19 55° 239° (WSW) 763 3.5 -25.8°
Maximum altitude 19:51:58 63° 282° (WNW) 712 3.4 -25.9°
Drops below altitude 10° 19:56:28 10° 4° (N) 2,035 6.1 -26.5°
Sets 19:58:44 0° 8° (N) 2,948 6.9 -26.8°
